Temp
3 3 3 3 3 3 4 4 4 4 4 5 4 4 4 4 4 4 5 4 7 7 7 8 8 8 8 7 5 5 6 6 7 7 8 8 8 6 5 5 5 5 4 5 6 6 6
4 4 3 4 3 3 4 4 4 4 4 4 4 4 4 4 4 4 5 5 6 7 7 8 8 8 8 5 5 5 6 7 7 7 7 7 6 6 5 4 5 4 4 4 5 5 5
3 3 3 3 4 3 3 4 4 4 3 3 4 4 4 4 5 4 6 6 6 6 7 7 8 8 7 4 5 5 6 6 6 6 7 6 6 7 5 4 4 4 4 4 4 5 5
3 5 5 4 3 3 3 4 4 4 3 4 4 4 4 4 5 5 6 5 6 7 7 7 8 8 4 5 5 6 5 5 5 6 6 5 6 6 5 4 4 3 3 5 6 5 6
4 5 5 4 3 4 4 4 4 4 4 4 4 5 5 5 7 6 6 6 6 6 7 7 8 9 5 5 5 5 5 5 5 5 5 5 6 4 4 2 3 2 4 3 4 5 5
5 5 4 4 4 4 4 4 5 5 5 4 6 5 5 5 5 6 5 6 6 7 8 8 8 7 5 5 5 5 5 5 5 5 5 5 4 1 1 2 5 3 2 2 2 5 4
6 5 5 5 5 5 4 4 4 6 5 4 4 5 4 4 4 4 5 5 6 7 6 5 5 5 5 5 5 5 5 5 5 5 3 3 1 2 2 2 2 2 1 2 3 4 4
6 5 6 5 5 5 5 5 4 4 4 4 4 3 4 4 4 4 5 6 5 6 5 6 6 5 5 5 5 5 5 5 4 3 3 2 1 3 2 2 2 1 2 4 4 4 4
5 6 5 6 6 6 5 5 4 4 4 3 3 3 4 5 5 7 7 6 6 6 6 5 6 6 5 6 5 5 5 5 4 4 4 1 4 3 3 3 4 4 3 3 3 5 5
5 5 5 6 7 6 5 5 5 4 4 4 3 3 5 5 6 6 6 6 6 7 2 4 5 5 6 6 5 5 5 5 4 3 3 2 3 4 3 3 5 4 5 4 4 4 6
5 5 5 6 6 6 5 5 4 4 5 4 5 5 5 5 5 6 6 7 7 7 3 6 5 6 6 6 5 5 5 5 4 4 4 3 4 4 4 6 5 5 6 6 6 5 5
5 5 5 6 6 6 6 6 5 4 5 5 5 5 6 6 6 6 7 7 7 2 2 3 5 5 5 5 5 5 5 5 4 4 5 4 4 4 5 5 6 7 6 5 5 5 5
5 5 5 6 6 6 6 6 6 6 5 5 5 5 6 6 6 7 7 7 2 1 4 5 5 5 5 6 5 4 5 6 5 6 2 4 4 4 4 4 6 6 5 5 5 5 6
5 5 5 5 6 6 6 6 6 6 6 6 6 6 6 6 7 7 7 3 2 5 4 6 6 5 5 6 6 5 5 5 4 6 6 5 6 4 4 5 6 6 6 7 7 7 7
7 6 5 6 5 5 5 5 6 7 7 7 7 7 7 7 7 8 7 0 2 4 5 5 6 6 6 7 6 6 5 5 5 4 7 6 6 6 4 6 6 6 7 7 7 7 7
7 7 6 6 5 5 5 6 6 7 8 8 8 7 7 7 8 8 2 3 4 4 6 6 7 6 7 7 6 6 6 6 7 5 6 6 6 6 7 6 6 7 7 6 6 6 7
6 8 7 7 6 5 5 6 6 7 8 8 9 8 8 8 7 8 1 2 5 6 6 6 6 7 6 7 6 6 7 7 7 6 5 5 5 6 6 7 7 6 6 6 6 6 7
6 7 8 7 7 6 6 6 6 6 7 8 8 4 8 8 7 1 3 5 6 7 6 6 7 6 7 7 7 6 6 6 8 7 6 5 4 3 6 7 6 7 6 5 5 7 5
7 6 7 7 7 7 6 6 6 6 7 7 8 8 8 9 1 2 4 6 6 7 6 7 7 7 7 7 7 7 7 8 7 6 7 5 4 3 6 6 6 7 6 6 4 3 5
8 6 6 6 7 7 6 7 6 6 6 7 7 1 7 7 4 3 5 5 7 7 7 6 6 6 6 7 6 6 7 7 7 7 7 6 3 4 4 7 6 6 6 5 4 4 6
8 7 5 6 6 7 6 6 7 6 6 6 6 2 3 1 3 2 3 4 6 6 6 6 7 6 6 6 5 6 6 5 6 6 5 5 4 2 3 4 4 5 5 5 2 4 6
8 7 6 5 6 6 6 6 6 6 6 6 6 4 3 3 3 4 3 4 6 6 6 7 7 6 5 5 5 6 6 5 5 5 5 3 4 4 2 5 3 4 4 4 4 5 4
7 7 7 5 5 5 6 6 6 6 6 6 6 5 4 1 1 2 2 4 5 5 6 7 6 5 4 4 6 7 6 6 5 5 4 4 3 3 4 5 3 5 5 4 5 5 6
7 7 7 6 5 5 5 5 6 6 6 6 6 5 5 2 0 1 3 4 4 5 5 6 6 5 7 6 6 5 4 3 2 2 4 4 3 2 3 3 7 9 6 5 6 5 4
7 7 7 7 5 5 5 5 5 5 5 5 5 5 5 1 2 2 2 3 4 5 4 5 6 7 7 6 4 4 4 6 4 3 1 2 3 4 3 2 5 8 5 5 6 8 5
7 6 6 7 6 5 4 4 4 5 5 5 5 5 4 3 1 5 3 3 1 2 2 5 5 6 6 3 4 6 5 6 6 5 1 1 1 4 2 5 8 9 7 6 7 7 7
6 6 5 6 6 5 5 4 4 4 4 4 4 4 4 4 5 4 3 3 4 3 1 3 5 5 5 2 4 2 4 3 5 5 3 2 2 2 3 3 4 5 6 6 10 10 8
6 6 5 5 6 5 5 5 4 4 3 4 4 4 4 4 4 5 5 5 4 4 2 5 3 3 1 3 3 3 2 2 3 3 3 3 2 1 1 3 5 5 5 7 8 9 9
6 6 5 4 5 5 5 5 4 4 3 3 3 3 3 3 4 4 4 4 4 5 5 5 3 4 5 2 0 1 3 -0 1 4 2 3 4 4 3 4 6 6 7 10 9 9 9
Height
1481 1476 1473 1468 1464 1460 1458 1457 1457 1456 1457 1458 1462 1465 1468 1472 1475 1476 1478 1480 1488 1494 1496 1500 1503 1507 1510 1514 1524 1524 1524 1523 1523 1522 1522 1522 1523 1526 1531 1534 1535 1534 1534 1534 1533 1531 1528
1482 1477 1474 1471 1466 1463 1461 1460 1459 1459 1459 1460 1463 1467 1469 1472 1474 1475 1476 1480 1488 1496 1496 1502 1506 1508 1511 1515 1523 1524 1525 1525 1523 1521 1521 1523 1526 1527 1530 1534 1536 1536 1533 1530 1527 1526 1525
1484 1480 1475 1473 1470 1467 1463 1463 1463 1463 1463 1463 1466 1469 1471 1472 1472 1474 1478 1483 1489 1494 1497 1503 1506 1509 1511 1520 1524 1525 1526 1525 1525 1524 1523 1526 1527 1528 1532 1532 1533 1533 1532 1527 1526 1524 1522
1487 1483 1480 1476 1476 1473 1470 1468 1468 1468 1469 1469 1471 1472 1471 1470 1472 1474 1479 1485 1490 1496 1501 1505 1507 1508 1518 1524 1526 1527 1527 1527 1528 1527 1527 1526 1527 1529 1531 1531 1533 1534 1535 1529 1522 1523 1521
1492 1488 1484 1481 1479 1479 1477 1476 1474 1474 1473 1474 1474 1473 1472 1470 1471 1476 1482 1486 1492 1500 1504 1505 1507 1508 1523 1527 1529 1528 1528 1528 1528 1528 1527 1527 1529 1530 1531 1535 1537 1538 1534 1537 1527 1523 1522
1497 1493 1489 1486 1484 1484 1482 1480 1479 1477 1477 1478 1475 1476 1476 1477 1479 1476 1486 1489 1499 1501 1505 1508 1510 1515 1526 1529 1529 1529 1529 1528 1529 1529 1529 1529 1530 1533 1538 1540 1534 1540 1541 1539 1534 1524 1522
1504 1498 1495 1492 1489 1487 1486 1485 1481 1477 1481 1482 1482 1482 1481 1481 1483 1485 1491 1497 1506 1511 1512 1517 1519 1520 1526 1530 1529 1531 1531 1530 1529 1531 1534 1533 1538 1542 1541 1539 1539 1541 1543 1540 1527 1523 1523
1508 1504 1500 1497 1495 1493 1492 1492 1489 1487 1488 1487 1487 1487 1490 1492 1494 1497 1499 1501 1504 1512 1519 1523 1526 1526 1531 1532 1532 1533 1533 1532 1532 1536 1536 1540 1544 1537 1537 1538 1540 1542 1539 1530 1521 1518 1521
1514 1511 1507 1503 1500 1499 1499 1498 1497 1496 1496 1496 1495 1496 1497 1499 1500 1500 1501 1502 1508 1511 1519 1530 1530 1531 1534 1534 1533 1534 1535 1534 1535 1536 1537 1541 1535 1534 1535 1535 1532 1531 1535 1530 1529 1518 1512
1520 1516 1513 1510 1507 1505 1506 1504 1504 1504 1503 1503 1503 1503 1503 1502 1506 1506 1506 1509 1512 1512 1527 1537 1534 1536 1535 1534 1535 1534 1535 1537 1536 1538 1537 1537 1533 1533 1533 1531 1530 1531 1521 1522 1522 1523 1511
1524 1522 1519 1516 1513 1512 1511 1511 1512 1511 1510 1509 1509 1510 1507 1506 1507 1509 1511 1512 1511 1511 1548 1540 1537 1536 1534 1535 1536 1536 1535 1535 1537 1537 1538 1536 1532 1531 1531 1525 1526 1520 1517 1517 1516 1516 1513
1528 1527 1524 1521 1519 1518 1515 1515 1515 1515 1512 1511 1511 1511 1511 1511 1512 1512 1512 1512 1512 1528 1560 1544 1536 1535 1536 1535 1535 1534 1535 1536 1536 1535 1534 1531 1529 1530 1524 1522 1520 1515 1516 1514 1513 1513 1510
1533 1530 1528 1525 1524 1523 1521 1519 1518 1516 1515 1514 1514 1514 1515 1515 1516 1515 1515 1515 1528 1548 1543 1540 1537 1535 1535 1534 1534 1535 1536 1535 1536 1533 1541 1529 1526 1524 1523 1523 1517 1517 1517 1517 1513 1511 1500
1536 1534 1532 1529 1527 1525 1524 1522 1521 1519 1519 1518 1518 1518 1517 1517 1517 1517 1517 1517 1542 1538 1540 1535 1536 1535 1536 1532 1533 1534 1535 1535 1535 1533 1532 1535 1527 1521 1520 1519 1517 1514 1516 1510 1508 1499 1497
1537 1536 1534 1533 1531 1529 1526 1524 1523 1522 1522 1522 1522 1521 1520 1520 1519 1518 1519 1540 1543 1537 1535 1536 1537 1536 1534 1533 1534 1533 1534 1534 1531 1532 1532 1533 1526 1514 1515 1514 1515 1512 1511 1509 1505 1502 1498
1540 1538 1536 1535 1535 1533 1530 1526 1523 1521 1522 1522 1522 1522 1522 1521 1520 1520 1524 1538 1538 1536 1536 1536 1534 1535 1533 1532 1534 1533 1533 1530 1528 1529 1529 1531 1527 1513 1511 1513 1513 1512 1511 1512 1510 1509 1498
1542 1540 1538 1536 1537 1536 1534 1530 1525 1524 1523 1523 1523 1523 1524 1523 1523 1522 1537 1541 1536 1534 1534 1536 1535 1534 1534 1533 1534 1534 1532 1529 1527 1528 1530 1531 1533 1518 1512 1510 1509 1512 1512 1512 1512 1511 1504
1543 1541 1540 1539 1537 1536 1535 1533 1530 1525 1524 1524 1522 1524 1525 1523 1525 1531 1535 1533 1533 1534 1533 1533 1532 1531 1531 1531 1532 1533 1532 1528 1526 1527 1529 1529 1533 1532 1512 1506 1508 1507 1508 1513 1513 1506 1512
1546 1541 1541 1539 1538 1536 1535 1533 1530 1529 1526 1524 1522 1523 1523 1522 1537 1538 1535 1534 1534 1533 1533 1533 1533 1533 1531 1531 1532 1530 1528 1525 1525 1526 1526 1527 1532 1536 1513 1511 1506 1506 1507 1507 1512 1516 1509
1545 1543 1540 1539 1538 1537 1535 1534 1532 1530 1528 1527 1525 1527 1525 1525 1530 1535 1537 1537 1535 1533 1534 1534 1533 1532 1532 1531 1531 1530 1527 1525 1524 1524 1524 1525 1530 1526 1529 1509 1509 1508 1504 1508 1510 1513 1503
1543 1543 1541 1540 1538 1536 1535 1534 1533 1531 1529 1528 1526 1529 1528 1534 1533 1530 1535 1538 1536 1535 1533 1533 1532 1533 1533 1533 1532 1529 1527 1524 1522 1522 1522 1524 1525 1526 1515 1508 1508 1504 1501 1502 1512 1501 1496
1542 1541 1540 1539 1538 1536 1535 1534 1532 1531 1530 1529 1527 1527 1529 1528 1530 1530 1533 1533 1534 1534 1533 1532 1532 1532 1533 1534 1530 1529 1527 1526 1523 1521 1520 1522 1522 1519 1515 1501 1506 1502 1497 1497 1496 1493 1494
1540 1539 1539 1537 1538 1536 1535 1534 1532 1531 1530 1529 1529 1528 1528 1530 1529 1532 1529 1525 1526 1528 1530 1529 1529 1530 1529 1526 1523 1523 1522 1522 1522 1523 1523 1523 1524 1524 1514 1503 1506 1498 1484 1487 1482 1481 1478
1535 1535 1536 1536 1534 1535 1535 1534 1533 1531 1530 1530 1530 1529 1528 1529 1530 1527 1524 1526 1525 1525 1524 1524 1527 1528 1524 1522 1520 1517 1516 1516 1518 1518 1520 1522 1523 1525 1519 1508 1498 1474 1475 1476 1475 1472 1472
1531 1531 1531 1533 1531 1531 1531 1531 1531 1531 1530 1529 1529 1530 1529 1528 1525 1523 1522 1523 1522 1522 1524 1522 1520 1521 1522 1521 1521 1518 1517 1512 1511 1513 1516 1517 1520 1520 1522 1523 1489 1468 1474 1474 1474 1465 1461
1527 1527 1526 1527 1528 1528 1530 1529 1529 1529 1528 1528 1528 1530 1530 1529 1522 1521 1522 1522 1522 1522 1522 1518 1519 1518 1519 1521 1524 1517 1519 1510 1509 1510 1513 1518 1520 1520 1525 1512 1487 1464 1466 1467 1469 1470 1456
1522 1523 1523 1522 1523 1523 1525 1527 1526 1526 1526 1526 1525 1525 1528 1528 1523 1521 1519 1519 1519 1521 1521 1516 1514 1518 1519 1521 1523 1528 1519 1515 1511 1506 1512 1514 1518 1519 1519 1518 1486 1463 1463 1466 1465 1462 1452
1517 1517 1518 1518 1518 1518 1519 1520 1522 1524 1523 1524 1522 1521 1522 1522 1519 1519 1519 1518 1517 1517 1518 1516 1518 1516 1518 1522 1521 1517 1521 1514 1512 1504 1503 1503 1512 1513 1517 1513 1492 1460 1466 1466 1454 1450 1451
1512 1510 1511 1512 1513 1513 1514 1515 1516 1518 1518 1519 1519 1519 1518 1517 1514 1511 1511 1513 1514 1514 1516 1514 1512 1509 1509 1513 1516 1515 1513 1515 1512 1503 1496 1500 1486 1488 1486 1473 1455 1455 1452 1451 1450 1449 1449
Wind_Speed
25 24 28 26 21 20 17 13 10 9 6 7 7 10 14 10 5 6 6 14 28 13 15 13 16 16 12 16 10 7 4 6 6 5 7 7 10 4 4 3 2 2 1 5 7 16 17
25 26 25 29 25 22 19 15 11 10 8 5 8 11 10 6 3 3 6 19 29 22 22 15 17 14 10 13 12 7 6 5 9 8 9 8 7 8 7 2 1 2 5 11 10 12 13
26 25 26 27 32 30 22 19 16 14 15 17 16 11 6 4 2 6 16 20 26 18 21 22 17 16 21 13 11 7 4 9 9 10 10 10 6 3 3 3 3 3 5 5 4 3 4
28 27 28 29 28 29 27 21 17 16 15 15 11 6 1 1 6 13 20 26 32 23 26 23 19 10 12 15 10 8 8 10 10 10 9 8 5 6 3 2 4 3 3 4 2 4 4
30 27 27 28 27 28 26 22 17 14 12 11 9 7 7 7 12 27 20 36 23 26 23 18 15 14 9 10 7 7 7 8 8 8 8 6 3 4 3 3 3 5 2 3 8 1 2
31 29 28 28 28 25 25 25 20 13 12 15 10 12 16 22 26 39 31 35 29 24 21 16 13 12 8 6 5 5 6 7 6 7 3 7 5 3 3 3 3 2 3 4 7 2 2
28 28 28 26 27 27 26 27 27 17 19 23 28 21 23 39 38 31 34 36 18 15 30 14 15 22 13 9 5 4 4 5 6 6 4 5 5 0 3 2 1 1 2 9 11 10 6
27 26 26 26 25 24 23 29 34 32 27 25 21 20 25 28 30 23 12 13 16 16 19 21 21 20 10 3 4 4 4 5 6 2 2 4 0 3 2 2 1 1 7 9 12 4 6
26 27 26 26 27 26 26 27 30 27 25 22 25 25 28 22 14 15 32 32 24 15 9 9 11 7 5 4 4 3 2 2 1 3 2 3 2 3 2 2 7 9 9 8 10 7 11
25 25 25 25 26 27 27 25 22 22 22 19 19 17 17 12 19 26 24 19 13 5 5 8 6 4 3 2 3 2 1 1 1 2 2 2 2 1 2 5 6 6 7 13 11 7 4
22 23 24 25 24 24 23 23 19 18 15 14 11 9 9 7 19 16 17 8 5 2 6 5 4 3 2 2 2 2 0 1 1 4 4 4 2 3 3 5 8 8 1 7 8 9 6
20 21 19 21 22 22 22 22 22 17 12 11 11 11 12 12 15 15 8 5 4 6 1 4 2 2 2 2 2 2 1 1 2 2 4 7 4 3 4 4 11 9 10 9 8 3 3
16 18 18 16 19 19 18 18 19 18 16 12 13 12 8 11 11 9 0 7 5 6 2 2 1 1 1 2 3 2 1 3 1 4 4 4 3 4 4 4 2 5 4 3 2 1 4
14 14 16 14 17 19 18 17 18 18 15 16 19 16 12 10 6 4 5 5 9 2 3 1 1 2 2 1 1 2 1 2 2 1 2 4 6 4 6 5 3 2 1 1 4 3 4
14 12 13 13 13 16 16 17 16 15 14 14 14 15 13 6 2 1 3 6 6 5 3 4 1 2 2 1 1 1 3 2 4 7 1 3 5 2 5 3 2 2 2 2 4 2 3
13 12 11 12 12 14 16 17 14 10 9 10 10 6 16 7 2 2 5 3 1 1 2 1 3 2 1 2 0 2 2 2 2 7 2 1 6 4 3 3 5 3 3 2 1 4 4
11 11 9 8 9 11 14 17 17 10 4 2 7 3 13 6 3 5 4 2 2 3 3 1 1 1 3 2 1 2 2 3 2 1 5 2 2 5 2 2 0 1 1 2 1 2 2
10 9 9 5 5 7 11 16 19 16 5 2 2 3 12 5 4 3 2 1 1 1 1 1 2 3 2 1 2 3 4 5 6 5 3 4 3 5 7 3 2 2 3 3 2 2 1
11 8 7 7 4 3 6 12 18 21 15 2 2 3 7 5 3 2 2 2 2 2 2 2 2 2 1 2 2 3 2 1 4 4 3 3 2 5 7 4 2 2 2 2 1 2 3
11 8 8 7 7 5 4 8 15 18 17 7 1 2 6 8 8 4 2 2 1 1 1 1 2 1 2 2 2 3 2 1 4 3 3 5 3 6 5 6 2 5 3 3 2 2 2
13 11 7 8 7 7 8 10 14 13 13 10 4 1 2 1 2 7 4 1 2 3 1 3 1 3 1 2 3 3 2 4 0 1 2 4 4 4 7 12 6 8 10 6 6 5 5
13 13 10 7 9 7 7 8 10 11 12 7 2 2 3 3 2 4 2 6 3 3 3 1 1 3 2 4 5 4 1 3 5 3 1 1 3 2 5 3 5 7 10 9 6 4 7
14 12 14 7 8 8 6 7 8 9 10 4 3 2 1 2 3 3 4 6 8 5 3 5 3 1 4 8 10 13 12 10 4 1 2 0 2 4 5 2 7 6 6 7 5 4 6
16 13 14 13 7 9 8 7 7 8 8 6 4 2 0 2 2 4 3 5 7 7 5 4 6 3 3 7 15 12 13 16 13 12 11 2 1 2 4 7 4 4 1 3 6 6 9
17 16 13 16 11 11 12 11 8 7 7 6 4 2 3 2 5 5 8 6 5 8 5 9 12 11 10 8 3 5 3 2 3 3 6 8 3 2 2 2 8 1 3 5 5 6 7
18 18 16 16 14 12 13 14 13 10 8 5 5 5 4 3 6 5 2 5 4 3 4 5 5 7 3 2 1 2 4 3 2 1 6 4 2 2 2 2 5 4 3 6 3 4 4
19 19 19 18 18 13 13 14 16 15 13 10 7 6 6 5 6 7 5 4 5 3 2 4 2 3 5 2 2 3 4 3 3 4 5 3 2 5 4 4 8 5 6 8 2 5 4
22 21 21 20 20 16 14 14 16 18 18 16 14 11 8 6 15 17 12 9 6 4 3 2 1 2 2 2 3 3 3 4 2 4 5 7 6 4 3 4 8 9 6 6 4 3 3
22 24 23 21 21 20 16 15 16 18 20 21 20 16 12 13 13 24 26 24 24 19 13 7 3 3 8 2 2 2 3 1 3 4 0 3 6 4 9 6 4 19 7 12 8 9 11
Wind_Direction
23 22 12 18 21 26 30 40 37 35 73 103 156 151 167 159 199 215 213 170 190 200 161 160 132 128 118 90 87 74 11 52 49 51 71 75 71 84 94 97 91 126 218 275 260 280 273
26 31 33 33 32 32 35 35 37 61 71 65 134 151 153 169 214 152 164 158 176 186 154 156 133 130 117 85 105 84 52 50 56 51 65 71 77 83 98 86 69 288 276 274 283 279 270
37 38 49 47 41 40 52 51 58 62 65 101 123 138 154 204 214 145 154 157 160 150 131 134 129 130 97 91 109 96 44 56 53 57 71 67 68 85 109 117 0 311 321 311 225 223 289
46 45 49 51 45 48 49 55 60 66 62 65 84 103 140 226 157 152 158 136 141 140 132 130 127 126 84 99 101 103 71 68 56 56 59 51 51 95 61 57 19 42 41 345 249 331 319
50 56 52 49 49 50 53 56 58 57 64 65 60 66 75 83 140 139 124 144 126 126 121 115 108 100 101 117 110 87 71 63 46 36 36 33 70 71 52 62 14 15 279 284 308 217 267
50 55 55 53 53 51 51 52 52 63 71 58 67 88 98 91 124 126 125 120 114 113 108 98 87 81 117 118 102 89 66 35 33 6 21 31 46 60 34 67 242 256 325 289 252 267 327
43 49 51 49 54 55 53 46 46 68 91 83 71 94 96 109 119 113 112 105 105 69 68 76 82 94 116 119 103 95 32 19 20 43 32 14 55 235 225 202 81 100 263 277 273 270 298
43 47 51 52 52 59 63 56 63 78 87 84 66 88 124 118 121 115 126 116 102 113 70 75 87 94 97 72 98 77 20 27 36 357 309 19 124 211 164 141 214 211 285 291 291 279 204
46 49 54 55 58 64 69 71 73 83 84 85 84 99 123 110 111 116 113 108 116 122 92 55 55 62 54 43 70 56 17 55 77 344 345 156 262 126 192 254 290 282 255 260 241 316 273
50 53 54 58 66 74 71 70 72 82 81 80 97 97 105 119 114 118 107 112 118 122 82 348 8 38 43 76 63 58 4 339 352 299 342 241 328 212 249 265 223 280 218 245 271 294 309
55 57 58 59 65 73 72 69 72 70 62 63 65 59 59 99 130 126 120 103 21 76 69 307 341 357 53 44 149 233 69 10 352 351 8 267 259 252 272 244 165 240 267 270 262 265 288
55 59 62 65 63 63 62 60 59 57 59 65 69 83 91 110 139 134 125 12 1 45 323 319 301 19 346 198 221 249 277 323 309 292 211 252 246 248 236 277 229 263 307 279 256 258 253
55 58 60 65 63 55 52 49 43 42 46 65 72 69 74 125 135 155 157 334 45 87 261 260 158 91 324 249 204 194 34 318 263 345 355 306 219 248 218 291 221 232 273 318 343 332 241
54 55 54 68 68 66 57 47 41 43 62 78 79 69 76 98 130 175 332 44 66 249 212 342 104 357 292 245 149 153 304 314 202 185 306 356 326 195 168 220 235 214 273 315 295 313 303
47 55 58 67 73 61 48 40 45 64 84 65 61 53 40 49 83 297 344 49 172 207 171 152 117 242 289 355 184 325 200 246 208 193 51 336 274 282 194 193 196 251 283 211 274 259 287
31 47 64 81 67 49 46 45 51 85 102 49 29 14 19 28 37 46 70 106 51 244 283 224 207 184 291 291 47 19 345 227 248 197 187 238 289 239 299 175 239 228 277 334 1 346 318
30 31 50 86 72 46 35 38 42 48 145 47 21 63 4 5 24 47 105 182 198 209 198 196 302 313 263 337 187 276 257 275 231 145 173 201 192 286 317 189 183 318 353 313 331 173 299
14 22 27 44 78 48 36 33 31 34 51 78 57 69 4 18 46 43 68 135 163 346 8 180 176 218 219 186 250 238 234 223 192 172 199 206 184 271 238 223 203 245 190 151 131 306 262
352 9 8 5 355 29 30 22 19 18 21 27 88 82 28 29 82 29 349 19 1 21 24 1 308 351 356 268 303 221 251 292 194 177 188 182 268 317 351 7 9 200 189 207 128 80 232
333 346 353 344 332 315 304 334 347 355 3 12 348 38 47 64 90 102 31 2 338 356 155 335 308 117 9 318 217 285 284 293 312 231 269 172 199 197 206 231 198 281 232 170 189 153 201
331 319 332 334 330 315 305 314 333 344 356 358 22 65 106 200 34 126 125 342 338 345 357 355 109 91 124 296 307 241 240 299 293 360 138 163 254 197 252 253 239 248 255 213 189 224 186
315 317 309 319 324 321 319 338 355 354 347 353 36 132 120 131 145 135 152 169 187 270 196 257 142 330 223 234 215 260 228 225 242 334 106 5 270 326 275 253 201 261 239 227 222 215 250
298 309 304 297 301 313 311 327 347 358 359 349 12 63 153 196 160 126 217 187 181 155 228 232 207 208 236 235 249 260 254 255 239 290 297 295 343 1 273 320 298 289 233 187 200 195 164
292 290 301 293 279 279 281 291 313 336 353 350 315 288 272 249 205 210 203 209 199 208 191 202 220 189 268 291 297 273 258 256 249 236 216 223 2 171 279 334 353 254 135 191 225 238 221
282 283 284 289 278 269 265 267 275 294 323 350 335 266 279 260 231 266 216 215 241 244 245 242 240 243 281 314 338 335 330 294 207 216 205 197 137 257 293 278 288 223 209 185 178 285 212
275 279 276 280 279 271 264 260 261 262 273 288 315 302 279 289 246 228 203 215 202 215 320 246 246 228 229 85 45 265 250 219 290 326 80 95 30 168 170 238 245 232 197 179 144 295 205
279 275 275 270 274 271 266 261 255 253 255 258 263 278 283 278 282 221 207 195 185 186 230 279 200 179 191 123 200 214 260 198 240 211 177 166 178 199 225 274 286 235 164 150 127 229 220
286 282 272 270 268 269 267 259 255 252 251 251 254 255 256 254 278 268 256 230 210 204 173 195 36 218 92 182 186 221 211 236 279 235 189 176 158 201 145 210 280 157 113 180 219 174 302
285 282 279 268 267 263 265 262 258 254 247 247 248 253 260 255 264 284 285 271 266 261 261 230 257 181 206 122 213 159 245 203 200 273 3 253 200 188 192 216 243 197 228 231 272 285 290